Погода в Каменке

Россия / Нижегородская область     56°11′02″N   45°34′44″E
темп.,
°C
ветер,
м/с
пор.,
м/с
влажн.,
%
обл.,
%
осадки,
мм/ч
давл.,
гПа
погр.,
м
21 апреля, ср
ср2100:00+5вюв61548100 0.0 1021787
03:00+5вюв71747100 0.0 1019876
06:00+1вюв82190100 3.6 1017859
09:00+3юв8178598 5.2 1016903
12:00+5юв81578100 0.0 1015969
15:00+5юв71482100 0.0 1015894
18:00+5ююв71486100 0.2 1014876
21:00+4ююв61492100 0.6 1014711
22 апреля, чт
чт2200:00+5ююв51494100 1.8 1014758
03:00+5юз4990100 2.6 1016910
06:00+4ю3889100 0.0 1018403
09:00+7ю488175 0.0 1019593
12:00+10ююз61075100 1.3 10191310
15:00+11зюз576996 2.1 10191305
18:00+8зюз367597 0.1 1021371
21:00+5ю22865 0.1 102215
23 апреля, пт
пт2300:00+4ю22855 0.0 102229
03:00+4ююв3786100 0.0 1022135
06:00+6ююв31082100 0.0 1023259
09:00+9ююв487384 0.0 1023359
12:00+14ююв465671 0.0 10221039
15:00+15ююв3446100 0.0 10211728
18:00+12вюв3668100 0.0 1021146
21:00+10юв3876100 0.0 1020206
24 апреля, сб
сб2400:00+9юв31082100 0.0 1019308
03:00+8юв31084100 0.2 1018316
06:00+8вюв4108316 0.0 1018451
09:00+11вюв47635 0.0 1016885
12:00+14юв575270 0.0 10131755
15:00+12вюв4765100 0.1 1012846
18:00+11вюв597388 0.0 1010807
21:00+8вюв6138386 0.1 1008613
25 апреля, вс
вс2500:00+7юв61283100 0.1 10061137
03:00+5зюз51082100 1.5 1006867
06:00+4юз411835 0.0 1007783
09:00+7юз596028 0.1 10081489
12:00+10юз6940100 0.2 10082641
15:00+11юз6103895 0.2 10093014
18:00+8юз510585 0.7 10101521
21:00+4юз25764 0.7 1012122